Beaufort, NC

8:39 PM EDT on April 20, 2018 (GMT -0400)
Smith

Weather History for KMRH - November, 2011

Change the Weather History Date:

Monday, November 14, 2011

  Actual Average Record
Temperature  
Mean Temperature 64 °F -  
Max Temperature 70 °F 64 °F 84 °F (2007)
Min Temperature 57 °F 42 °F 24 °F (1976)
Degree Days  
Heating Degree Days 2    
Growing Degree Days 14 (Base 50)    
Moisture  
Dew Point 59 °F    
Average Humidity 82    
Maximum Humidity 96    
Minimum Humidity 65    
Precipitation  
Precipitation 0.00 in - - ()
Sea Level Pressure  
Sea Level Pressure 30.15 in    
Wind  
Wind Speed 6 mph (SSW)    
Max Wind Speed 14 mph    
Max Gust Speed -    
Visibility 10 miles    
Events      
Averages and records for this station are not official NWS values.
T = Trace of Precipitation, MM = Missing Value Source: NWS Daily Summary

Daily Weather History Graph

Daily Weather History Graph

Search for Another Location

Airport or City:

Astronomy

Nov. 14, 2011 Rise Set
Actual Time 6:39 AM EST 5:02 PM EST
Civil Twilight 6:12 AM EST 5:29 PM EST
Nautical Twilight 5:42 AM EST 5:59 PM EST
Astronomical Twilight 5:12 AM EST 6:29 PM EST
Moon 8:09 PM EST (11/14) 9:53 AM EST (11/14)
Length of Visible Light 11h 16m
Length of Day
10h 23m
Waning Gibbous, 87% of the Moon is Illuminated
Nov 14
Waning Gibbous
Nov 18
Last Quarter
Nov 25
New
Dec 2
First Quarter
Dec 10
Full

Hourly Weather History & Observations

Time (EST) Temp. Dew Point Humidity Pressure Visibility Wind Dir Wind Speed Gust Speed Precip Events Conditions
12:56 AM 61.0 °F 57.9 °F 90% 30.21 in 10.0 mi NW 4.6 mph - N/A   Mostly Cloudy
1:56 AM 62.1 °F 60.1 °F 93% 30.19 in 10.0 mi SSW 4.6 mph - N/A   Clear
2:56 AM 63.0 °F 60.1 °F 90% 30.18 in 10.0 mi SSW 6.9 mph - N/A   Clear
3:56 AM 61.0 °F 57.9 °F 90% 30.18 in 10.0 mi SSW 4.6 mph - N/A   Clear
4:56 AM 62.1 °F 57.9 °F 86% 30.19 in 10.0 mi SW 3.5 mph - N/A   Clear
5:56 AM 61.0 °F 57.9 °F 90% 30.19 in 10.0 mi Calm Calm - N/A   Clear
6:56 AM 57.0 °F 55.9 °F 96% 30.20 in 10.0 mi Calm Calm - N/A   Clear
7:56 AM 64.0 °F 61.0 °F 90% 30.20 in 10.0 mi SSW 3.5 mph - N/A   Clear
8:56 AM 68.0 °F 59.0 °F 73% 30.20 in 10.0 mi Variable 4.6 mph - N/A   Partly Cloudy
9:56 AM 69.1 °F 57.9 °F 68% 30.21 in 10.0 mi SSW 8.1 mph - N/A   Clear
10:56 AM 70.0 °F 57.9 °F 65% 30.20 in 10.0 mi SW 9.2 mph - N/A   Clear
11:56 AM 70.0 °F 59.0 °F 68% 30.16 in 10.0 mi SSW 9.2 mph - N/A   Clear
12:56 PM 70.0 °F 59.0 °F 68% 30.13 in 10.0 mi SSW 13.8 mph - N/A   Clear
1:56 PM 70.0 °F 60.1 °F 71% 30.10 in 10.0 mi SSW 10.4 mph - N/A   Clear
2:56 PM 70.0 °F 60.1 °F 71% 30.09 in 10.0 mi South 12.7 mph - N/A   Clear
3:56 PM 68.0 °F 59.0 °F 73% 30.09 in 10.0 mi SSW 12.7 mph - N/A   Clear
4:56 PM 64.9 °F 59.0 °F 81% 30.09 in 10.0 mi SSW 11.5 mph - N/A   Clear
5:56 PM 64.9 °F 59.0 °F 81% 30.09 in 10.0 mi SSW 10.4 mph - N/A   Clear
6:56 PM 64.0 °F 59.0 °F 84% 30.11 in 10.0 mi SSW 9.2 mph - N/A   Clear
7:56 PM 64.0 °F 59.0 °F 84% 30.11 in 10.0 mi South 9.2 mph - N/A   Clear
8:56 PM 64.0 °F 60.1 °F 87% 30.11 in 10.0 mi SSW 9.2 mph - N/A   Clear
9:56 PM 64.0 °F 60.1 °F 87% 30.10 in 10.0 mi South 8.1 mph - N/A   Clear
10:56 PM 64.0 °F 60.1 °F 87% 30.09 in 10.0 mi SSW 9.2 mph - N/A   Clear
11:56 PM 63.0 °F 61.0 °F 93% 30.07 in 10.0 mi South 6.9 mph - N/A   Clear